Location: Unspecified
(0.0000°N, 0.0000°E)
Time: 06:30:57
(UTC+00:00)

A-11 Canister half - Pass Details

Date: 22 November 2019
Orbit: 1515 x 1685 km, 47.2° (Epoch: 10 December)

Event Time Altitude Azimuth Distance (km) Brightness Sun altitude
Rises 12:31:18 0° 202° (SSW) 4,698 11.9 67.0°
Reaches altitude 10° 12:34:42 10° 194° (SSW) 3,733 11.5 66.6°
Maximum altitude 12:43:08 36° 130° (SE) 2,320 10.6 65.5°
Drops below altitude 10° 12:51:47 10° 67° (ENE) 3,846 11.0 64.2°
Sets 12:55:18 0° 59° (ENE) 4,855 11.4 63.7°
